User: anonymous
Location: Killarney Provincial Park Observatory
(46.0124°N, 81.4000°W)
Time: 11:26:55
(UTC-04:00)
Language:

Iridium 22 - Orbit

View from above orbital plane
View from above orbital plane
View from above satellite
View from above satellite

Ground track
Ground track

The orbit data is extracted from the following two-line orbital elements,

1 24907U 97043E   14107.31250191  .00000035  00000-0  53902-5 0  7798
2 24907 086.4015 019.5541 0002172 100.4614 015.0664 14.34211430872014
Epoch (UTC): 17 April 2014 07:30:00
Eccentricity: 0.0002172
inclination: 86.4015°
perigee height: 776 km
apogee height: 779 km
right ascension of ascending node: 19.5541°
argument of perigee: 100.4614°
revolutions per day: 14.34211430
mean anomaly at epoch: 15.0664°
orbit number at epoch: 87201

The dashed part of the orbit path shows where the satellite is in the earth's shadow,  

DLR